Location: Asheville, NC
(35.6000°N, 82.5500°W)
Time: 04:42:53
(UTC-05:00)

Vanguard 3 - Pass Details

Date: 16 December 2017
Orbit: 508 x 3264 km, 33.4° (Epoch: 17 January)

Event Time Altitude Azimuth Distance (km) Brightness Sun altitude
Rises 14:30:37 0° 270° (W) 2,880 10.4 24.1°
Reaches altitude 10° 14:33:05 10° 266° (W) 1,820 9.6 23.8°
Maximum altitude 14:36:53 59° 187° (S) 587 7.4 23.4°
Drops below altitude 10° 14:40:35 10° 107° (ESE) 1,769 8.8 23.0°
Sets 14:42:57 0° 103° (ESE) 2,789 9.7 22.7°
